Regional Weather Roundup
Issued by NWS Burlington, VT

Home | Current Version | Previous Version | Text Only | Print | Product List | Glossary On
Versions: 1 2 3 4 5 6 7 8 9 10 11 12 13 14 15 16 17 18 19 20 21 22 23 24 25 26 27 28 29 30 31 32 33 34 35 36 37 38 39 40 41 42 43 44 45 46 47 48 49 50
000
ASUS41 KBTV 072010
RWRBTV
VERMONT REGIONAL WEATHER ROUNDUP
NATIONAL WEATHER SERVICE BURLINGTON VT
400 PM EDT TUE JUL 07 2015

NOTE: "FAIR" INDICATES FEW OR NO CLOUDS BELOW 12,000 FEET WITH NO
SIGNIFICANT WEATHER AND/OR OBSTRUCTIONS TO VISIBILITY.

* THESE REPORTS ARE NOT UNDER NWS QUALITY CONTROL AND/OR DO NOT
  REPORT WEATHER SUCH AS PRECIPITATION AND FOG.

VTZ001>019-072100-
_____VERMONT_____


CITY           SKY/WX    TMP DP  RH WIND       PRES   REMARKS
BURLINGTON     MOSUNNY   83  69  62 S16       29.86F
MONTPELIER     MOSUNNY   78  69  73 S14G23    29.98F
MORRISVILLE    PTSUNNY   79  69  71 VRB7      29.93F
ST. JOHNSBURY*   N/A     76  68  76 MISG      29.93R
LYNDONVILLE*   LGT RAIN  73  69  87 S9G16     29.98R
MIDDLEBURY*    CLOUDY    81  69  68 S12G17    29.91S
RUTLAND*       MOSUNNY   77  66  69 SE8       29.94F
SPRINGFIELD    PTSUNNY   81  68  64 S10       29.95F
HIGHGATE*      PTSUNNY   81  69  66 S9G18     29.84F
BENNINGTON     PTSUNNY   79  70  74 S10       29.95F

_____LAKE CHAMPLAIN_____


CITY           SKY/WX    TMP DP  RH WIND       PRES   REMARKS

$$

NYZ007-026>031-035-052-083-072100-
_____NORTHERN NEW YORK_____


CITY           SKY/WX    TMP DP  RH WIND       PRES   REMARKS
PLATTSBURGH    MOSUNNY   81  70  69 SE20      29.83F
SARANAC LAKE   PTSUNNY   80  66  62 SW13G22   29.90F
MASSENA        MOSUNNY   87  68  52 SW15G25   29.81F HX  90
OGDENSBURG*    SUNNY     86  70  58 SW9G17    29.82S HX  90
POTSDAM*       MOSUNNY   86  73  66 SW13      29.82F HX  93
WATERTOWN      SUNNY     84  70  62 SW7       29.84S
FT DRUM        SUNNY     85  67  54 W10G17    29.84F
ALBANY         PTSUNNY   79  72  79 S12       29.92F
GLENS FALLS    PTSUNNY   76  71  85 S7        29.90F

$$
NHZ002-005-011-072100-
_____NEW HAMPSHIRE_____


CITY           SKY/WX    TMP DP  RH WIND       PRES   REMARKS
LEBANON        CLOUDY    83  69  62 S16       29.93F
KEENE          PTSUNNY   79  70  73 S8        29.97F
MT WASHINGTON  FOG       55  55 100 S33G43      N/A  VSB 0
PLYMOUTH       CLOUDY    78  73  82 S6        29.96S
WHITEFIELD     CLOUDY    81  64  56 S10G21    29.95F

$$

_____REGIONAL QUEBEC LOCATIONS_____


CITY           SKY/WX    TMP DP  RH WIND       PRES   REMARKS
MONTREAL       PTSUNNY   84  73  70 SE6       29.80F HX  91
QUEBEC CITY    LGT RAIN  77  70  78 W9        29.83F
SHERBROOKE     CLOUDY    81  66  61 S8G18     29.88F

_____REGIONAL ONTARIO LOCATIONS_____


CITY           SKY/WX    TMP DP  RH WIND       PRES   REMARKS
OTTAWA         PTSUNNY   84  66  54 SW15G25   29.79F

______KEY______
VSB  - VISIBILITY IN MILES
WCI  - WIND CHILL INDEX
HX   - HEAT INDEX
$$
NNNN


USA.gov is the U.S. government's official web portal to all federal, state and local government web resources and services.